Time,TemperatureF,DewpointF,PressureIn,WindDirection,WindDirectionDegrees,WindSpeedMPH,WindSpeedGustMPH,Humidity,HourlyPrecipIn,Conditions,Clouds,dailyrainin,SoftwareType,DateUTC
2013-06-21 00:01:00,66.8,55.9,30.16,SE,126,0.0,1.0,68,0.00,,SCT065,0.00,VWS V14.00,2013-06-21 04:01:00,
2013-06-21 00:06:00,66.5,55.6,30.16,SE,126,0.0,2.0,68,0.00,,SCT065,0.00,VWS V14.00,2013-06-21 04:06:00,
2013-06-21 00:11:00,66.3,55.0,30.16,SE,126,0.0,0.0,67,0.00,,SCT065,0.00,VWS V14.00,2013-06-21 04:11:00,
2013-06-21 00:16:00,66.1,55.2,30.16,SE,126,0.0,1.0,68,0.00,,SCT065,0.00,VWS V14.00,2013-06-21 04:16:00,
2013-06-21 00:21:00,65.9,55.5,30.17,SE,126,0.0,0.0,69,0.00,,SCT065,0.00,VWS V14.00,2013-06-21 04:21:00,
2013-06-21 00:26:00,65.8,55.4,30.17,SE,126,0.0,1.0,69,0.00,,SCT065,0.00,VWS V14.00,2013-06-21 04:26:00,
2013-06-21 00:31:00,65.6,55.6,30.17,SE,126,0.0,0.0,70,0.00,,SCT065,0.00,VWS V14.00,2013-06-21 04:31:00,
2013-06-21 00:36:00,65.5,55.5,30.17,SE,125,0.0,0.0,70,0.00,,SCT065,0.00,VWS V14.00,2013-06-21 04:36:00,
2013-06-21 00:41:00,65.4,55.4,30.17,SE,126,0.0,1.0,70,0.00,,SCT065,0.00,VWS V14.00,2013-06-21 04:41:00,
2013-06-21 00:46:00,65.4,55.8,30.17,SE,126,0.0,1.0,71,0.00,,SCT065,0.00,VWS V14.00,2013-06-21 04:46:00,
2013-06-21 00:51:00,65.4,56.2,30.17,SE,126,0.0,0.0,72,0.00,,SCT065,0.00,VWS V14.00,2013-06-21 04:51:00,
2013-06-21 00:56:00,65.5,56.6,30.17,SE,126,0.0,0.0,73,0.00,,SCT065,0.00,VWS V14.00,2013-06-21 04:56:00,
2013-06-21 01:01:00,65.6,56.7,30.17,SE,125,0.0,0.0,73,0.00,,BKN085,0.00,VWS V14.00,2013-06-21 05:01:00,
2013-06-21 01:06:00,65.8,56.5,30.17,SE,126,0.0,1.0,72,0.00,,BKN085,0.00,VWS V14.00,2013-06-21 05:06:00,
2013-06-21 01:11:00,66.0,56.3,30.17,SE,126,0.0,0.0,71,0.00,,BKN085,0.00,VWS V14.00,2013-06-21 05:11:00,
2013-06-21 01:16:00,66.1,56.8,30.17,SE,125,0.0,1.0,72,0.00,,BKN085,0.00,VWS V14.00,2013-06-21 05:16:00,
2013-06-21 01:21:00,66.0,56.3,30.17,SE,125,0.0,0.0,71,0.00,,BKN085,0.00,VWS V14.00,2013-06-21 05:21:00,
2013-06-21 01:26:00,65.8,56.2,30.17,SE,126,0.0,0.0,71,0.00,,BKN085,0.00,VWS V14.00,2013-06-21 05:26:00,
2013-06-21 01:31:00,65.6,56.3,30.16,SE,126,0.0,0.0,72,0.00,,BKN085,0.00,VWS V14.00,2013-06-21 05:31:00,
2013-06-21 01:36:00,65.4,56.2,30.16,SE,126,0.0,0.0,72,0.00,,BKN085,0.00,VWS V14.00,2013-06-21 05:36:00,
2013-06-21 01:41:00,65.2,56.3,30.16,SE,125,0.0,0.0,73,0.00,,BKN085,0.00,VWS V14.00,2013-06-21 05:41:00,
2013-06-21 01:46:00,65.0,56.2,30.16,SE,126,0.0,0.0,73,0.00,,BKN085,0.00,VWS V14.00,2013-06-21 05:46:00,
2013-06-21 01:51:00,64.8,56.0,30.16,SE,126,0.0,0.0,73,0.00,,BKN085,0.00,VWS V14.00,2013-06-21 05:51:00,
2013-06-21 01:56:00,64.5,55.7,30.16,SE,126,0.0,0.0,73,0.00,,BKN085,0.00,VWS V14.00,2013-06-21 05:56:00,
2013-06-21 02:01:00,64.4,55.9,30.16,SE,126,0.0,0.0,74,0.00,,BKN085,0.00,VWS V14.00,2013-06-21 06:01:00,
2013-06-21 02:06:00,64.3,56.2,30.16,SE,126,0.0,0.0,75,0.00,,BKN085,0.00,VWS V14.00,2013-06-21 06:06:00,
2013-06-21 02:11:00,64.3,56.2,30.16,SE,126,0.0,0.0,75,0.00,,BKN085,0.00,VWS V14.00,2013-06-21 06:11:00,
2013-06-21 02:16:00,64.1,55.7,30.16,SE,126,0.0,0.0,74,0.00,,BKN085,0.00,VWS V14.00,2013-06-21 06:16:00,
2013-06-21 02:21:00,63.9,55.5,30.16,SE,126,0.0,0.0,74,0.00,,BKN085,0.00,VWS V14.00,2013-06-21 06:21:00,
2013-06-21 02:26:00,63.8,55.4,30.16,SE,126,0.0,0.0,74,0.00,,BKN085,0.00,VWS V14.00,2013-06-21 06:26:00,
2013-06-21 02:31:00,63.6,55.5,30.16,SE,126,0.0,0.0,75,0.00,,BKN085,0.00,VWS V14.00,2013-06-21 06:31:00,
2013-06-21 02:36:00,63.5,55.4,30.16,SE,126,0.0,0.0,75,0.00,,BKN085,0.00,VWS V14.00,2013-06-21 06:36:00,
2013-06-21 02:41:00,63.4,55.3,30.16,SE,126,0.0,0.0,75,0.00,,BKN085,0.00,VWS V14.00,2013-06-21 06:41:00,
2013-06-21 02:46:00,63.3,55.2,30.16,SE,126,0.0,0.0,75,0.00,,BKN085,0.00,VWS V14.00,2013-06-21 06:46:00,
2013-06-21 02:51:00,63.3,55.6,30.16,SE,126,0.0,0.0,76,0.00,,BKN085,0.00,VWS V14.00,2013-06-21 06:51:00,
2013-06-21 02:56:00,63.3,55.6,30.16,SE,125,0.0,0.0,76,0.00,,BKN085,0.00,VWS V14.00,2013-06-21 06:56:00,
2013-06-21 03:01:00,63.4,55.7,30.16,SE,126,0.0,0.0,76,0.00,,FEW070,0.00,VWS V14.00,2013-06-21 07:01:00,
2013-06-21 03:06:00,63.4,56.1,30.16,SE,126,0.0,0.0,77,0.00,,FEW070,0.00,VWS V14.00,2013-06-21 07:06:00,
2013-06-21 03:11:00,63.5,55.8,30.16,SE,125,0.0,0.0,76,0.00,,FEW070,0.00,VWS V14.00,2013-06-21 07:11:00,
2013-06-21 03:16:00,63.6,55.9,30.16,SE,125,0.0,0.0,76,0.00,,FEW070,0.00,VWS V14.00,2013-06-21 07:16:00,
2013-06-21 03:21:00,63.7,56.0,30.15,SE,126,0.0,0.0,76,0.00,,FEW070,0.00,VWS V14.00,2013-06-21 07:21:00,
2013-06-21 03:25:00,63.8,56.5,30.15,SE,126,0.0,1.0,77,0.00,,FEW070,0.00,VWS V14.00,2013-06-21 07:25:00,
2013-06-21 03:31:00,63.9,56.2,30.15,SE,125,0.0,1.0,76,0.00,,FEW070,0.00,VWS V14.00,2013-06-21 07:31:00,
2013-06-21 03:35:00,63.9,56.6,30.15,SE,126,0.0,1.0,77,0.00,,FEW070,0.00,VWS V14.00,2013-06-21 07:35:00,
2013-06-21 03:40:00,63.9,56.6,30.15,SE,126,0.0,0.0,77,0.00,,FEW070,0.00,VWS V14.00,2013-06-21 07:40:00,
2013-06-21 03:45:00,63.9,56.6,30.15,SE,126,0.0,0.0,77,0.00,,FEW070,0.00,VWS V14.00,2013-06-21 07:45:00,
2013-06-21 03:50:00,63.8,56.5,30.15,SE,126,0.0,0.0,77,0.00,,FEW070,0.00,VWS V14.00,2013-06-21 07:50:00,
2013-06-21 03:55:00,63.6,56.3,30.15,SE,126,0.0,0.0,77,0.00,,FEW070,0.00,VWS V14.00,2013-06-21 07:55:00,
2013-06-21 04:00:00,63.6,56.6,30.14,SE,125,0.0,0.0,78,0.00,,FEW065,0.00,VWS V14.00,2013-06-21 08:00:00,
2013-06-21 04:05:00,63.5,56.5,30.15,SE,126,0.0,0.0,78,0.00,,FEW065,0.00,VWS V14.00,2013-06-21 08:05:00,
2013-06-21 04:10:00,63.5,56.5,30.14,SE,126,0.0,0.0,78,0.00,,FEW065,0.00,VWS V14.00,2013-06-21 08:10:00,
2013-06-21 04:15:00,63.4,56.4,30.15,SE,125,0.0,0.0,78,0.00,,FEW065,0.00,VWS V14.00,2013-06-21 08:15:00,
2013-06-21 04:20:00,63.3,56.3,30.15,SE,125,0.0,0.0,78,0.00,,FEW065,0.00,VWS V14.00,2013-06-21 08:20:00,
2013-06-21 04:25:00,63.4,56.8,30.15,SE,126,0.0,0.0,79,0.00,,FEW065,0.00,VWS V14.00,2013-06-21 08:25:00,
2013-06-21 04:30:00,63.6,57.0,30.15,SE,126,0.0,0.0,79,0.00,,FEW065,0.00,VWS V14.00,2013-06-21 08:30:00,
2013-06-21 04:35:00,63.9,57.3,30.15,SE,126,0.0,0.0,79,0.00,,FEW065,0.00,VWS V14.00,2013-06-21 08:35:00,
2013-06-21 04:40:00,64.2,57.2,30.15,SE,126,0.0,0.0,78,0.00,,FEW065,0.00,VWS V14.00,2013-06-21 08:40:00,
2013-06-21 04:45:00,64.3,57.3,30.15,SE,125,0.0,0.0,78,0.00,,FEW065,0.00,VWS V14.00,2013-06-21 08:45:00,
2013-06-21 04:50:00,64.3,57.0,30.15,SE,126,0.0,0.0,77,0.00,,FEW065,0.00,VWS V14.00,2013-06-21 08:50:00,
2013-06-21 04:55:00,64.3,57.0,30.15,SE,126,0.0,0.0,77,0.00,,FEW065,0.00,VWS V14.00,2013-06-21 08:55:00,
2013-06-21 05:00:00,64.3,57.0,30.14,SE,126,0.0,0.0,77,0.00,,BKN085,0.00,VWS V14.00,2013-06-21 09:00:00,
2013-06-21 05:05:00,64.3,57.0,30.14,SE,126,0.0,0.0,77,0.00,,BKN085,0.00,VWS V14.00,2013-06-21 09:05:00,
2013-06-21 05:10:00,64.2,57.2,30.14,SE,125,0.0,0.0,78,0.00,,BKN085,0.00,VWS V14.00,2013-06-21 09:10:00,
2013-06-21 05:15:00,64.0,57.0,30.14,SE,126,0.0,0.0,78,0.00,,BKN085,0.00,VWS V14.00,2013-06-21 09:15:00,
2013-06-21 05:20:00,63.9,56.9,30.14,SE,126,0.0,0.0,78,0.00,,BKN085,0.00,VWS V14.00,2013-06-21 09:20:00,
2013-06-21 05:25:00,63.8,56.8,30.14,SE,125,0.0,0.0,78,0.00,,BKN085,0.00,VWS V14.00,2013-06-21 09:25:00,
2013-06-21 05:40:00,63.6,57.0,30.15,North,0,0.0,0.0,79,0.00,,BKN085,0.00,VWS V14.00,2013-06-21 09:40:00,
2013-06-21 05:50:00,63.6,57.0,30.15,North,0,0.0,0.0,79,0.00,,BKN085,0.00,VWS V14.00,2013-06-21 09:50:00,
2013-06-21 05:55:00,63.7,57.4,30.15,SE,126,0.0,0.0,80,0.00,,BKN085,0.00,VWS V14.00,2013-06-21 09:55:00,
2013-06-21 06:00:00,63.7,57.4,30.14,SE,126,0.0,0.0,80,0.00,,OVC070,0.00,VWS V14.00,2013-06-21 10:00:00,
2013-06-21 06:05:00,63.7,57.4,30.15,SE,125,0.0,0.0,80,0.00,,OVC070,0.00,VWS V14.00,2013-06-21 10:05:00,
2013-06-21 06:10:00,63.6,57.7,30.15,SE,126,0.0,0.0,81,0.00,,OVC070,0.00,VWS V14.00,2013-06-21 10:10:00,
2013-06-21 06:15:00,63.6,57.7,30.15,SE,126,0.0,0.0,81,0.00,,OVC070,0.00,VWS V14.00,2013-06-21 10:15:00,
2013-06-21 06:20:00,63.5,57.6,30.15,SE,125,0.0,0.0,81,0.00,,OVC070,0.00,VWS V14.00,2013-06-21 10:20:00,
2013-06-21 06:25:00,63.6,58.0,30.16,SE,125,0.0,1.0,82,0.00,,OVC070,0.00,VWS V14.00,2013-06-21 10:25:00,
2013-06-21 06:30:00,63.7,58.5,30.16,SE,125,0.0,0.0,83,0.00,,OVC070,0.00,VWS V14.00,2013-06-21 10:30:00,
2013-06-21 06:35:00,63.9,58.6,30.15,SE,126,0.0,0.0,83,0.00,,OVC070,0.00,VWS V14.00,2013-06-21 10:35:00,
2013-06-21 06:40:00,64.2,58.9,30.15,SE,126,0.0,0.0,83,0.00,,OVC070,0.00,VWS V14.00,2013-06-21 10:40:00,
2013-06-21 06:45:00,64.5,59.2,30.15,SE,125,0.0,2.0,83,0.00,,OVC070,0.00,VWS V14.00,2013-06-21 10:45:00,
2013-06-21 06:50:00,64.8,59.2,30.16,SE,125,3.0,3.0,82,0.00,,OVC070,0.00,VWS V14.00,2013-06-21 10:50:00,
2013-06-21 06:55:00,65.2,59.6,30.15,SE,133,0.0,3.0,82,0.00,,OVC070,0.00,VWS V14.00,2013-06-21 10:55:00,
2013-06-21 07:00:00,65.5,59.5,30.15,South,188,0.0,3.0,81,0.00,,BKN085,0.00,VWS V14.00,2013-06-21 11:00:00,
2013-06-21 07:05:00,65.9,59.6,30.15,South,175,0.0,3.0,80,0.00,,BKN085,0.00,VWS V14.00,2013-06-21 11:05:00,
2013-06-21 07:10:00,66.3,60.0,30.15,SSW,199,2.0,3.0,80,0.00,,BKN085,0.00,VWS V14.00,2013-06-21 11:10:00,
2013-06-21 07:15:00,66.5,59.8,30.15,SSW,192,1.0,4.0,79,0.00,,BKN085,0.00,VWS V14.00,2013-06-21 11:15:00,
2013-06-21 07:20:00,66.8,59.7,30.15,SW,218,0.0,2.0,78,0.00,,BKN085,0.00,VWS V14.00,2013-06-21 11:20:00,
2013-06-21 07:25:00,66.9,59.8,30.15,SSW,199,0.0,4.0,78,0.00,,BKN085,0.00,VWS V14.00,2013-06-21 11:25:00,
2013-06-21 07:30:00,67.1,60.0,30.15,SSW,199,2.0,4.0,78,0.00,,BKN085,0.00,VWS V14.00,2013-06-21 11:30:00,
2013-06-21 07:35:00,67.1,59.7,30.15,SSW,199,0.0,4.0,77,0.00,,BKN085,0.00,VWS V14.00,2013-06-21 11:35:00,
2013-06-21 07:40:00,67.1,59.7,30.15,SSW,199,0.0,0.0,77,0.00,,BKN085,0.00,VWS V14.00,2013-06-21 11:40:00,
2013-06-21 07:45:00,67.1,60.0,30.15,SSW,199,0.0,1.0,78,0.00,,BKN085,0.00,VWS V14.00,2013-06-21 11:45:00,
2013-06-21 07:50:00,67.3,60.2,30.15,SSW,199,0.0,1.0,78,0.00,,BKN085,0.00,VWS V14.00,2013-06-21 11:50:00,
2013-06-21 07:55:00,67.6,60.1,30.15,SSW,206,0.0,4.0,77,0.00,,BKN085,0.00,VWS V14.00,2013-06-21 11:55:00,
2013-06-21 08:00:00,67.9,60.4,30.16,South,190,3.0,3.0,77,0.00,,CLR,0.00,VWS V14.00,2013-06-21 12:00:00,
2013-06-21 08:05:00,68.2,60.7,30.16,South,190,0.0,3.0,77,0.00,,CLR,0.00,VWS V14.00,2013-06-21 12:05:00,
2013-06-21 08:10:00,68.3,60.8,30.16,South,190,0.0,0.0,77,0.00,,CLR,0.00,VWS V14.00,2013-06-21 12:10:00,
2013-06-21 08:15:00,68.4,60.9,30.16,South,190,0.0,0.0,77,0.00,,CLR,0.00,VWS V14.00,2013-06-21 12:15:00,
2013-06-21 08:20:00,68.6,61.1,30.16,South,190,0.0,0.0,77,0.00,,CLR,0.00,VWS V14.00,2013-06-21 12:20:00,
2013-06-21 08:25:00,68.9,61.4,30.16,South,190,0.0,0.0,77,0.00,,CLR,0.00,VWS V14.00,2013-06-21 12:25:00,
2013-06-21 08:30:00,69.2,61.3,30.17,South,190,0.0,0.0,76,0.00,,CLR,0.00,VWS V14.00,2013-06-21 12:30:00,
2013-06-21 08:35:00,69.6,62.1,30.17,South,190,0.0,1.0,77,0.00,,CLR,0.00,VWS V14.00,2013-06-21 12:35:00,
2013-06-21 08:40:00,70.1,62.2,30.18,South,190,0.0,0.0,76,0.00,,CLR,0.00,VWS V14.00,2013-06-21 12:40:00,
2013-06-21 08:45:00,70.7,62.4,30.18,South,190,0.0,0.0,75,0.00,,CLR,0.00,VWS V14.00,2013-06-21 12:45:00,
2013-06-21 08:50:00,71.2,62.5,30.17,South,190,0.0,2.0,74,0.00,,CLR,0.00,VWS V14.00,2013-06-21 12:50:00,
2013-06-21 08:55:00,71.5,62.8,30.17,SSW,198,0.0,2.0,74,0.00,,CLR,0.00,VWS V14.00,2013-06-21 12:55:00,
2013-06-21 09:00:00,71.7,62.6,30.17,SSW,197,0.0,0.0,73,0.00,,CLR,0.00,VWS V14.00,2013-06-21 13:00:00,
2013-06-21 09:05:00,71.7,62.2,30.17,South,179,2.0,4.0,72,0.00,,CLR,0.00,VWS V14.00,2013-06-21 13:05:00,
2013-06-21 09:10:00,71.8,62.3,30.17,South,184,2.0,3.0,72,0.00,,CLR,0.00,VWS V14.00,2013-06-21 13:10:00,
2013-06-21 09:15:00,72.0,62.5,30.17,South,184,0.0,3.0,72,0.00,,CLR,0.00,VWS V14.00,2013-06-21 13:15:00,
2013-06-21 09:20:00,72.5,62.6,30.18,SW,228,3.0,4.0,71,0.00,,CLR,0.00,VWS V14.00,2013-06-21 13:20:00,
2013-06-21 09:25:00,72.9,62.1,30.19,West,277,0.0,4.0,69,0.00,,CLR,0.00,VWS V14.00,2013-06-21 13:25:00,
2013-06-21 09:30:00,73.1,63.2,30.18,WNW,283,2.0,2.0,71,0.00,,CLR,0.00,VWS V14.00,2013-06-21 13:30:00,
2013-06-21 09:35:00,73.6,63.2,30.17,South,183,0.0,3.0,70,0.00,,CLR,0.00,VWS V14.00,2013-06-21 13:35:00,
2013-06-21 09:40:00,74.2,63.4,30.17,South,183,1.0,1.0,69,0.00,,CLR,0.00,VWS V14.00,2013-06-21 13:40:00,
2013-06-21 09:45:00,74.8,63.5,30.17,SSW,194,0.0,6.0,68,0.00,,CLR,0.00,VWS V14.00,2013-06-21 13:45:00,
2013-06-21 09:50:00,75.3,63.6,30.16,South,190,0.0,3.0,67,0.00,,CLR,0.00,VWS V14.00,2013-06-21 13:50:00,
2013-06-21 09:55:00,76.0,63.8,30.16,SSW,213,0.0,6.0,66,0.00,,CLR,0.00,VWS V14.00,2013-06-21 13:55:00,
2013-06-21 10:00:00,76.5,64.3,30.16,SSW,198,0.0,0.0,66,0.00,,SCT075,0.00,VWS V14.00,2013-06-21 14:00:00,
2013-06-21 10:05:00,77.1,64.9,30.16,SSW,198,0.0,1.0,66,0.00,,SCT075,0.00,VWS V14.00,2013-06-21 14:05:00,
2013-06-21 10:10:00,77.5,64.8,30.15,SSW,197,0.0,3.0,65,0.00,,SCT075,0.00,VWS V14.00,2013-06-21 14:10:00,
2013-06-21 10:15:00,77.8,64.2,30.15,SSW,211,0.0,5.0,63,0.00,,SCT075,0.00,VWS V14.00,2013-06-21 14:15:00,
2013-06-21 10:20:00,78.2,63.7,30.14,SSW,198,0.0,7.0,61,0.00,,SCT075,0.00,VWS V14.00,2013-06-21 14:20:00,
2013-06-21 10:25:00,78.6,64.5,30.14,SSW,194,0.0,7.0,62,0.00,,SCT075,0.00,VWS V14.00,2013-06-21 14:25:00,
2013-06-21 10:30:00,78.9,64.3,30.14,SSW,194,0.0,0.0,61,0.00,,SCT075,0.00,VWS V14.00,2013-06-21 14:30:00,
2013-06-21 10:35:00,79.3,63.7,30.14,West,271,0.0,7.0,59,0.00,,SCT075,0.00,VWS V14.00,2013-06-21 14:35:00,
2013-06-21 10:40:00,79.6,65.4,30.15,SW,228,0.0,5.0,62,0.00,,SCT075,0.00,VWS V14.00,2013-06-21 14:40:00,
2013-06-21 10:45:00,80.0,65.4,30.16,WSW,237,2.0,5.0,61,0.00,,SCT075,0.00,VWS V14.00,2013-06-21 14:45:00,
2013-06-21 10:50:00,80.5,64.4,30.15,SSW,193,6.0,9.0,58,0.00,,SCT075,0.00,VWS V14.00,2013-06-21 14:50:00,
2013-06-21 10:55:00,80.7,64.6,30.15,SSW,199,0.0,9.0,58,0.00,,SCT075,0.00,VWS V14.00,2013-06-21 14:55:00,
2013-06-21 11:00:00,81.1,64.9,30.16,WSW,240,0.0,0.0,58,0.00,,CLR,0.00,VWS V14.00,2013-06-21 15:00:00,
2013-06-21 11:05:00,81.6,65.9,30.16,SW,228,0.0,1.0,59,0.00,,CLR,0.00,VWS V14.00,2013-06-21 15:05:00,
2013-06-21 11:10:00,81.9,65.2,30.16,WSW,256,0.0,0.0,57,0.00,,CLR,0.00,VWS V14.00,2013-06-21 15:10:00,
2013-06-21 11:15:00,82.2,65.5,30.16,SW,217,0.0,5.0,57,0.00,,CLR,0.00,VWS V14.00,2013-06-21 15:15:00,
2013-06-21 11:20:00,82.5,64.7,30.16,SW,234,3.0,5.0,55,0.00,,CLR,0.00,VWS V14.00,2013-06-21 15:20:00,
2013-06-21 11:25:00,82.7,64.9,30.17,SSW,206,1.0,5.0,55,0.00,,CLR,0.00,VWS V14.00,2013-06-21 15:25:00,
2013-06-21 11:30:00,82.7,65.4,30.17,West,260,0.0,6.0,56,0.00,,CLR,0.00,VWS V14.00,2013-06-21 15:30:00,
2013-06-21 11:35:00,82.8,67.0,30.17,SW,229,0.0,7.0,59,0.00,,CLR,0.00,VWS V14.00,2013-06-21 15:35:00,
2013-06-21 11:40:00,83.1,65.8,30.17,South,179,2.0,4.0,56,0.00,,CLR,0.00,VWS V14.00,2013-06-21 15:40:00,
2013-06-21 11:45:00,83.4,65.6,30.17,WSW,241,0.0,8.0,55,0.00,,CLR,0.00,VWS V14.00,2013-06-21 15:45:00,
2013-06-21 11:50:00,83.7,65.8,30.17,SSE,156,0.0,1.0,55,0.00,,CLR,0.00,VWS V14.00,2013-06-21 15:50:00,
2013-06-21 11:55:00,84.0,64.5,30.16,WSW,240,1.0,7.0,52,0.00,,CLR,0.00,VWS V14.00,2013-06-21 15:55:00,
2013-06-21 12:00:00,84.2,66.3,30.17,WNW,286,0.0,1.0,55,0.00,,CLR,0.00,VWS V14.00,2013-06-21 16:00:00,
2013-06-21 12:05:00,84.6,65.6,30.17,WSW,249,0.0,4.0,53,0.00,,CLR,0.00,VWS V14.00,2013-06-21 16:05:00,
2013-06-21 12:10:00,84.6,63.3,30.16,WNW,292,0.0,9.0,49,0.00,,CLR,0.00,VWS V14.00,2013-06-21 16:10:00,
2013-06-21 12:15:00,84.7,65.7,30.16,SW,236,0.0,9.0,53,0.00,,CLR,0.00,VWS V14.00,2013-06-21 16:15:00,
2013-06-21 12:20:00,84.9,66.4,30.16,SSW,210,0.0,3.0,54,0.00,,CLR,0.00,VWS V14.00,2013-06-21 16:20:00,
2013-06-21 12:25:00,85.3,66.2,30.16,SSW,203,0.0,3.0,53,0.00,,CLR,0.00,VWS V14.00,2013-06-21 16:25:00,
2013-06-21 12:30:00,85.5,65.3,30.16,SSW,199,0.0,12.0,51,0.00,,CLR,0.00,VWS V14.00,2013-06-21 16:30:00,
2013-06-21 12:35:00,85.6,65.4,30.16,SSW,194,1.0,12.0,51,0.00,,CLR,0.00,VWS V14.00,2013-06-21 16:35:00,
2013-06-21 12:40:00,85.5,65.3,30.15,WSW,238,0.0,5.0,51,0.00,,CLR,0.00,VWS V14.00,2013-06-21 16:40:00,
2013-06-21 12:45:00,85.7,64.9,30.16,South,179,5.0,5.0,50,0.00,,CLR,0.00,VWS V14.00,2013-06-21 16:45:00,
2013-06-21 12:50:00,86.0,65.8,30.16,WNW,282,0.0,1.0,51,0.00,,CLR,0.00,VWS V14.00,2013-06-21 16:50:00,
2013-06-21 12:55:00,86.2,64.8,30.15,SW,236,3.0,7.0,49,0.00,,CLR,0.00,VWS V14.00,2013-06-21 16:55:00,
2013-06-21 13:00:00,86.2,67.6,30.15,SW,216,0.0,0.0,54,0.00,,CLR,0.00,VWS V14.00,2013-06-21 17:00:00,
2013-06-21 13:05:00,86.4,65.6,30.15,SSW,199,0.0,6.0,50,0.00,,CLR,0.00,VWS V14.00,2013-06-21 17:05:00,
2013-06-21 13:10:00,86.6,65.2,30.15,SSW,203,3.0,3.0,49,0.00,,CLR,0.00,VWS V14.00,2013-06-21 17:10:00,
2013-06-21 13:15:00,86.9,65.5,30.14,SW,217,0.0,6.0,49,0.00,,CLR,0.00,VWS V14.00,2013-06-21 17:15:00,
2013-06-21 13:20:00,87.1,65.1,30.14,SSW,202,0.0,7.0,48,0.00,,CLR,0.00,VWS V14.00,2013-06-21 17:20:00,
2013-06-21 13:25:00,87.1,66.8,30.14,SW,227,4.0,7.0,51,0.00,,CLR,0.00,VWS V14.00,2013-06-21 17:25:00,
2013-06-21 13:30:00,86.9,63.0,30.14,South,175,0.0,9.0,45,0.00,,CLR,0.00,VWS V14.00,2013-06-21 17:30:00,
2013-06-21 13:35:00,87.1,66.2,30.13,West,280,0.0,9.0,50,0.00,,CLR,0.00,VWS V14.00,2013-06-21 17:35:00,
2013-06-21 13:40:00,87.1,65.1,30.14,WSW,252,1.0,7.0,48,0.00,,CLR,0.00,VWS V14.00,2013-06-21 17:40:00,
2013-06-21 13:46:00,87.1,65.6,30.14,WSW,242,0.0,7.0,49,0.00,,CLR,0.00,VWS V14.00,2013-06-21 17:46:00,
2013-06-21 13:47:00,87.1,66.8,30.13,SSW,213,0.0,7.0,51,0.00,,CLR,0.00,VWS V14.00,2013-06-21 17:47:00,
2013-06-21 13:52:00,86.9,66.6,30.13,SW,234,0.0,8.0,51,0.00,,CLR,0.00,VWS V14.00,2013-06-21 17:52:00,
2013-06-21 13:57:00,86.5,63.3,30.13,SSW,203,0.0,8.0,46,0.00,,CLR,0.00,VWS V14.00,2013-06-21 17:57:00,
2013-06-21 14:02:00,86.0,65.2,30.13,South,175,0.0,4.0,50,0.00,,SCT070,0.00,VWS V14.00,2013-06-21 18:02:00,
2013-06-21 14:07:00,86.2,64.8,30.13,WSW,248,0.0,7.0,49,0.00,,SCT070,0.00,VWS V14.00,2013-06-21 18:07:00,
2013-06-21 14:12:00,86.7,64.1,30.13,SSW,199,0.0,7.0,47,0.00,,SCT070,0.00,VWS V14.00,2013-06-21 18:12:00,
2013-06-21 14:17:00,86.9,64.9,30.12,SSW,211,0.0,12.0,48,0.00,,SCT070,0.00,VWS V14.00,2013-06-21 18:17:00,
2013-06-21 14:22:00,86.9,63.0,30.12,SSW,207,0.0,10.0,45,0.00,,SCT070,0.00,VWS V14.00,2013-06-21 18:22:00,
2013-06-21 14:23:00,86.9,63.0,30.12,NW,307,4.0,10.0,45,0.00,,SCT070,0.00,VWS V14.00,2013-06-21 18:23:00,
2013-06-21 14:28:00,87.1,63.8,30.13,South,173,4.0,5.0,46,0.00,,SCT070,0.00,VWS V14.00,2013-06-21 18:28:00,
2013-06-21 14:33:00,87.2,63.3,30.13,SW,234,0.0,10.0,45,0.00,,SCT070,0.00,VWS V14.00,2013-06-21 18:33:00,
2013-06-21 14:38:00,87.4,64.7,30.12,SW,229,1.0,4.0,47,0.00,,SCT070,0.00,VWS V14.00,2013-06-21 18:38:00,
2013-06-21 14:44:00,87.7,66.2,30.12,SSW,194,1.0,7.0,49,0.00,,SCT070,0.00,VWS V14.00,2013-06-21 18:44:00,
2013-06-21 14:45:00,87.7,63.8,30.12,WSW,238,1.0,7.0,45,0.00,,SCT070,0.00,VWS V14.00,2013-06-21 18:45:00,
2013-06-21 14:50:00,87.9,65.2,30.13,South,178,0.0,11.0,47,0.00,,SCT070,0.00,VWS V14.00,2013-06-21 18:50:00,
2013-06-21 14:55:00,87.9,64.6,30.12,South,169,5.0,11.0,46,0.00,,SCT070,0.00,VWS V14.00,2013-06-21 18:55:00,
2013-06-21 15:00:00,87.8,63.2,30.12,WSW,241,3.0,9.0,44,0.00,,CLR,0.00,VWS V14.00,2013-06-21 19:00:00,
2013-06-21 15:05:00,87.1,60.6,30.12,South,178,0.0,11.0,41,0.00,,CLR,0.00,VWS V14.00,2013-06-21 19:05:00,
2013-06-21 15:11:00,87.1,62.6,30.12,SSW,194,0.0,1.0,44,0.00,,CLR,0.00,VWS V14.00,2013-06-21 19:11:00,
2013-06-21 15:16:00,87.3,61.4,30.12,SSW,199,0.0,7.0,42,0.00,,CLR,0.00,VWS V14.00,2013-06-21 19:16:00,
2013-06-21 15:20:00,87.3,60.0,30.12,South,188,0.0,7.0,40,0.00,,CLR,0.00,VWS V14.00,2013-06-21 19:20:00,
2013-06-21 15:25:00,87.3,60.8,30.12,SSW,194,3.0,11.0,41,0.00,,CLR,0.00,VWS V14.00,2013-06-21 19:25:00,
2013-06-21 15:30:00,87.5,60.9,30.11,SW,228,4.0,6.0,41,0.00,,CLR,0.00,VWS V14.00,2013-06-21 19:30:00,
2013-06-21 15:35:00,87.8,60.5,30.12,South,186,1.0,11.0,40,0.00,,CLR,0.00,VWS V14.00,2013-06-21 19:35:00,
2013-06-21 15:40:00,87.8,61.2,30.11,SSE,148,0.0,0.0,41,0.00,,CLR,0.00,VWS V14.00,2013-06-21 19:40:00,
2013-06-21 15:42:00,88.0,62.7,30.11,SSE,149,0.0,1.0,43,0.00,,CLR,0.00,VWS V14.00,2013-06-21 19:42:00,
2013-06-21 15:47:00,88.2,60.8,30.11,SW,234,0.0,10.0,40,0.00,,CLR,0.00,VWS V14.00,2013-06-21 19:47:00,
2013-06-21 15:52:00,88.4,58.8,30.11,WNW,287,0.0,6.0,37,0.00,,CLR,0.00,VWS V14.00,2013-06-21 19:52:00,
2013-06-21 15:57:00,88.1,60.0,30.11,WSW,237,0.0,6.0,39,0.00,,CLR,0.00,VWS V14.00,2013-06-21 19:57:00,
2013-06-21 16:02:00,87.8,61.2,30.11,SW,227,0.0,6.0,41,0.00,,CLR,0.00,VWS V14.00,2013-06-21 20:02:00,
2013-06-21 16:04:00,87.7,65.0,30.11,West,263,0.0,6.0,47,0.00,,CLR,0.00,VWS V14.00,2013-06-21 20:04:00,
2013-06-21 16:08:00,87.5,62.3,30.12,SW,220,0.0,6.0,43,0.00,,CLR,0.00,VWS V14.00,2013-06-21 20:08:00,
2013-06-21 16:11:00,87.5,63.6,30.11,WSW,250,0.0,6.0,45,0.00,,CLR,0.00,VWS V14.00,2013-06-21 20:11:00,
2013-06-21 16:14:00,87.6,64.3,30.11,WSW,250,0.0,6.0,46,0.00,,CLR,0.00,VWS V14.00,2013-06-21 20:14:00,
2013-06-21 16:19:00,87.5,61.6,30.11,SW,235,1.0,1.0,42,0.00,,CLR,0.00,VWS V14.00,2013-06-21 20:19:00,
2013-06-21 16:24:00,87.4,62.2,30.12,SW,229,0.0,3.0,43,0.00,,CLR,0.00,VWS V14.00,2013-06-21 20:24:00,
2013-06-21 16:29:00,87.2,61.3,30.11,SW,219,0.0,1.0,42,0.00,,CLR,0.00,VWS V14.00,2013-06-21 20:29:00,
2013-06-21 16:34:00,86.9,64.3,30.11,WSW,245,0.0,5.0,47,0.00,,CLR,0.00,VWS V14.00,2013-06-21 20:34:00,
2013-06-21 16:39:00,86.4,61.3,30.10,SSW,197,0.0,4.0,43,0.00,,CLR,0.00,VWS V14.00,2013-06-21 20:39:00,
2013-06-21 16:44:00,86.2,61.1,30.10,SSW,196,0.0,4.0,43,0.00,,CLR,0.00,VWS V14.00,2013-06-21 20:44:00,
2013-06-21 16:49:00,86.3,61.8,30.10,SSW,202,0.0,0.0,44,0.00,,CLR,0.00,VWS V14.00,2013-06-21 20:49:00,
2013-06-21 16:54:00,86.5,61.4,30.09,WSW,239,0.0,6.0,43,0.00,,CLR,0.00,VWS V14.00,2013-06-21 20:54:00,
2013-06-21 16:59:00,86.4,63.2,30.09,West,264,0.0,0.0,46,0.00,,FEW080,0.00,VWS V14.00,2013-06-21 20:59:00,
2013-06-21 17:04:00,86.3,62.5,30.09,WNW,285,0.0,1.0,45,0.00,,FEW080,0.00,VWS V14.00,2013-06-21 21:04:00,
2013-06-21 17:09:00,86.2,63.0,30.09,WSW,255,0.0,0.0,46,0.00,,FEW080,0.00,VWS V14.00,2013-06-21 21:09:00,
2013-06-21 17:14:00,86.0,64.0,30.09,WSW,246,0.0,2.0,48,0.00,,FEW080,0.00,VWS V14.00,2013-06-21 21:14:00,
2013-06-21 17:19:00,85.8,62.7,30.09,NW,304,0.0,3.0,46,0.00,,FEW080,0.00,VWS V14.00,2013-06-21 21:19:00,
2013-06-21 17:24:00,85.3,62.8,30.09,SSW,195,1.0,3.0,47,0.00,,FEW080,0.00,VWS V14.00,2013-06-21 21:24:00,
2013-06-21 17:29:00,85.0,61.3,30.09,SW,232,0.0,0.0,45,0.00,,FEW080,0.00,VWS V14.00,2013-06-21 21:29:00,
2013-06-21 17:34:00,85.0,61.9,30.09,SSE,163,0.0,3.0,46,0.00,,FEW080,0.00,VWS V14.00,2013-06-21 21:34:00,
2013-06-21 17:39:00,85.0,61.9,30.08,WSW,256,0.0,1.0,46,0.00,,FEW080,0.00,VWS V14.00,2013-06-21 21:39:00,
2013-06-21 17:44:00,84.8,62.3,30.08,SSW,199,1.0,5.0,47,0.00,,FEW080,0.00,VWS V14.00,2013-06-21 21:44:00,
2013-06-21 17:49:00,84.7,63.5,30.08,South,191,0.0,0.0,49,0.00,,FEW080,0.00,VWS V14.00,2013-06-21 21:49:00,
2013-06-21 17:54:00,84.7,64.0,30.08,SSW,213,0.0,3.0,50,0.00,,FEW080,0.00,VWS V14.00,2013-06-21 21:54:00,
2013-06-21 17:59:00,84.6,63.3,30.08,SSW,213,0.0,0.0,49,0.00,,FEW080,0.00,VWS V14.00,2013-06-21 21:59:00,
2013-06-21 18:04:00,84.6,62.8,30.07,SSW,207,2.0,3.0,48,0.00,,CLR,0.00,VWS V14.00,2013-06-21 22:04:00,
2013-06-21 18:09:00,84.3,62.5,30.07,South,173,0.0,0.0,48,0.00,,CLR,0.00,VWS V14.00,2013-06-21 22:09:00,
2013-06-21 18:14:00,84.3,65.3,30.07,SSW,202,3.0,3.0,53,0.00,,CLR,0.00,VWS V14.00,2013-06-21 22:14:00,
2013-06-21 18:19:00,84.3,63.1,30.07,SSW,195,2.0,5.0,49,0.00,,CLR,0.00,VWS V14.00,2013-06-21 22:19:00,
2013-06-21 18:24:00,84.0,63.4,30.06,South,187,0.0,5.0,50,0.00,,CLR,0.00,VWS V14.00,2013-06-21 22:24:00,
2013-06-21 18:29:00,83.8,63.8,30.06,South,187,0.0,0.0,51,0.00,,CLR,0.00,VWS V14.00,2013-06-21 22:29:00,
2013-06-21 18:34:00,83.5,64.6,30.06,SSW,209,0.0,5.0,53,0.00,,CLR,0.00,VWS V14.00,2013-06-21 22:34:00,
2013-06-21 18:39:00,83.3,63.3,30.06,SSW,195,0.0,4.0,51,0.00,,CLR,0.00,VWS V14.00,2013-06-21 22:39:00,
2013-06-21 18:44:00,83.3,64.4,30.05,SSW,203,0.0,5.0,53,0.00,,CLR,0.00,VWS V14.00,2013-06-21 22:44:00,
2013-06-21 18:49:00,83.6,64.7,30.05,SSW,210,0.0,0.0,53,0.00,,CLR,0.00,VWS V14.00,2013-06-21 22:49:00,
2013-06-21 18:54:00,83.7,63.1,30.05,SW,225,0.0,6.0,50,0.00,,CLR,0.00,VWS V14.00,2013-06-21 22:54:00,
2013-06-21 18:59:00,83.6,62.4,30.06,SSW,211,1.0,1.0,49,0.00,,CLR,0.00,VWS V14.00,2013-06-21 22:59:00,
2013-06-21 19:04:00,83.3,64.4,30.05,SSW,200,1.0,1.0,53,0.00,,CLR,0.00,VWS V14.00,2013-06-21 23:04:00,
2013-06-21 19:09:00,82.8,63.9,30.05,SSW,199,0.0,0.0,53,0.00,,CLR,0.00,VWS V14.00,2013-06-21 23:09:00,
2013-06-21 19:14:00,82.3,62.4,30.05,South,179,0.0,6.0,51,0.00,,CLR,0.00,VWS V14.00,2013-06-21 23:14:00,
2013-06-21 19:19:00,82.0,62.7,30.05,South,173,0.0,1.0,52,0.00,,CLR,0.00,VWS V14.00,2013-06-21 23:19:00,
2013-06-21 19:24:00,81.8,61.9,30.05,SSW,201,0.0,6.0,51,0.00,,CLR,0.00,VWS V14.00,2013-06-21 23:24:00,
2013-06-21 19:29:00,81.6,62.8,30.05,South,191,0.0,1.0,53,0.00,,CLR,0.00,VWS V14.00,2013-06-21 23:29:00,
2013-06-21 19:34:00,81.4,62.1,30.05,SSW,210,0.0,7.0,52,0.00,,CLR,0.00,VWS V14.00,2013-06-21 23:34:00,
2013-06-21 19:39:00,81.2,62.5,30.05,SSW,200,0.0,0.0,53,0.00,,CLR,0.00,VWS V14.00,2013-06-21 23:39:00,
2013-06-21 19:44:00,81.1,62.4,30.05,SSW,200,0.0,4.0,53,0.00,,CLR,0.00,VWS V14.00,2013-06-21 23:44:00,
2013-06-21 19:49:00,80.9,62.2,30.05,South,182,0.0,0.0,53,0.00,,CLR,0.00,VWS V14.00,2013-06-21 23:49:00,
2013-06-21 19:54:00,80.7,62.0,30.05,SSW,207,0.0,0.0,53,0.00,,CLR,0.00,VWS V14.00,2013-06-21 23:54:00,
2013-06-21 19:59:00,80.5,61.8,30.05,South,175,0.0,0.0,53,0.00,,CLR,0.00,VWS V14.00,2013-06-21 23:59:00,
2013-06-21 20:04:00,80.3,61.1,30.04,SSW,211,0.0,3.0,52,0.00,,CLR,0.00,VWS V14.00,2013-06-22 00:04:00,
2013-06-21 20:09:00,80.1,60.9,30.04,SSW,193,0.0,0.0,52,0.00,,CLR,0.00,VWS V14.00,2013-06-22 00:09:00,
2013-06-21 20:14:00,79.8,59.5,30.04,SSW,198,0.0,3.0,50,0.00,,CLR,0.00,VWS V14.00,2013-06-22 00:14:00,
2013-06-21 20:19:00,79.6,60.4,30.04,SSW,198,0.0,0.0,52,0.00,,CLR,0.00,VWS V14.00,2013-06-22 00:19:00,
2013-06-21 20:24:00,79.4,59.7,30.03,SSE,150,0.0,3.0,51,0.00,,CLR,0.00,VWS V14.00,2013-06-22 00:24:00,
2013-06-21 20:29:00,79.2,59.0,30.03,SE,140,0.0,1.0,50,0.00,,CLR,0.00,VWS V14.00,2013-06-22 00:29:00,
2013-06-21 20:34:00,79.0,58.8,30.03,SSE,150,0.0,1.0,50,0.00,,CLR,0.00,VWS V14.00,2013-06-22 00:34:00,
2013-06-21 20:39:00,78.9,58.7,30.03,South,185,0.0,0.0,50,0.00,,CLR,0.00,VWS V14.00,2013-06-22 00:39:00,
2013-06-21 20:44:00,78.7,58.5,30.03,SSW,201,0.0,7.0,50,0.00,,CLR,0.00,VWS V14.00,2013-06-22 00:44:00,
2013-06-21 20:49:00,78.5,58.9,30.03,SSW,201,0.0,1.0,51,0.00,,CLR,0.00,VWS V14.00,2013-06-22 00:49:00,
2013-06-21 20:54:00,78.2,59.2,30.03,SSW,196,0.0,3.0,52,0.00,,CLR,0.00,VWS V14.00,2013-06-22 00:54:00,
2013-06-21 20:59:00,78.0,58.4,30.03,SSW,213,0.0,4.0,51,0.00,,CLR,0.00,VWS V14.00,2013-06-22 00:59:00,
2013-06-21 21:04:00,77.8,58.2,30.03,SSW,207,0.0,4.0,51,0.00,,CLR,0.00,VWS V14.00,2013-06-22 01:04:00,
2013-06-21 21:09:00,77.6,58.1,30.03,SSW,207,0.0,0.0,51,0.00,,CLR,0.00,VWS V14.00,2013-06-22 01:09:00,
2013-06-21 21:14:00,77.3,58.3,30.03,SSW,209,0.0,3.0,52,0.00,,CLR,0.00,VWS V14.00,2013-06-22 01:14:00,
2013-06-21 21:19:00,76.9,58.0,30.02,SSW,209,0.0,0.0,52,0.00,,CLR,0.00,VWS V14.00,2013-06-22 01:19:00,
2013-06-21 21:24:00,76.5,57.6,30.02,SSW,209,0.0,0.0,52,0.00,,CLR,0.00,VWS V14.00,2013-06-22 01:24:00,
2013-06-21 21:29:00,76.3,57.4,30.02,SSW,209,0.0,0.0,52,0.00,,CLR,0.00,VWS V14.00,2013-06-22 01:29:00,
2013-06-21 21:34:00,76.1,58.8,30.03,SSW,206,0.0,3.0,55,0.00,,CLR,0.00,VWS V14.00,2013-06-22 01:34:00,
2013-06-21 21:39:00,75.8,58.0,30.03,SSW,206,0.0,0.0,54,0.00,,CLR,0.00,VWS V14.00,2013-06-22 01:39:00,
2013-06-21 21:44:00,75.4,57.1,30.03,SSW,206,0.0,1.0,53,0.00,,CLR,0.00,VWS V14.00,2013-06-22 01:44:00,
2013-06-21 21:49:00,75.2,56.9,30.03,SSW,206,0.0,0.0,53,0.00,,CLR,0.00,VWS V14.00,2013-06-22 01:49:00,
2013-06-21 21:54:00,75.2,56.9,30.04,SSW,206,0.0,1.0,53,0.00,,CLR,0.00,VWS V14.00,2013-06-22 01:54:00,
2013-06-21 21:59:00,75.1,57.3,30.04,SSW,206,0.0,0.0,54,0.00,,CLR,0.00,VWS V14.00,2013-06-22 01:59:00,
2013-06-21 22:04:00,75.0,57.2,30.05,SSW,206,0.0,3.0,54,0.00,,CLR,0.00,VWS V14.00,2013-06-22 02:04:00,
2013-06-21 22:09:00,74.8,57.6,30.03,SSW,206,0.0,0.0,55,0.00,,CLR,0.00,VWS V14.00,2013-06-22 02:09:00,
2013-06-21 22:14:00,74.6,57.4,30.03,SSW,204,0.0,1.0,55,0.00,,CLR,0.00,VWS V14.00,2013-06-22 02:14:00,
2013-06-21 22:19:00,74.5,56.8,30.04,SSW,204,0.0,0.0,54,0.00,,CLR,0.00,VWS V14.00,2013-06-22 02:19:00,
2013-06-21 22:24:00,74.5,57.3,30.04,SSW,203,1.0,1.0,55,0.00,,CLR,0.00,VWS V14.00,2013-06-22 02:24:00,
2013-06-21 22:29:00,74.4,57.2,30.04,SSW,204,0.0,0.0,55,0.00,,CLR,0.00,VWS V14.00,2013-06-22 02:29:00,
2013-06-21 22:34:00,74.2,57.5,30.04,SSW,203,0.0,1.0,56,0.00,,CLR,0.00,VWS V14.00,2013-06-22 02:34:00,
2013-06-21 22:39:00,74.1,56.9,30.04,SSW,203,0.0,0.0,55,0.00,,CLR,0.00,VWS V14.00,2013-06-22 02:39:00,
2013-06-21 22:44:00,74.0,56.8,30.05,SSW,203,0.0,0.0,55,0.00,,CLR,0.00,VWS V14.00,2013-06-22 02:44:00,
2013-06-21 22:49:00,73.8,57.6,30.05,SSW,203,0.0,0.0,57,0.00,,CLR,0.00,VWS V14.00,2013-06-22 02:49:00,
2013-06-21 22:54:00,73.5,57.8,30.06,SSW,203,0.0,0.0,58,0.00,,CLR,0.00,VWS V14.00,2013-06-22 02:54:00,
2013-06-21 22:59:00,73.2,57.1,30.05,SSW,203,0.0,0.0,57,0.00,,CLR,0.00,VWS V14.00,2013-06-22 02:59:00,
2013-06-21 23:04:00,73.0,56.9,30.06,SSW,203,0.0,0.0,57,0.00,,CLR,0.00,VWS V14.00,2013-06-22 03:04:00,
2013-06-21 23:09:00,72.8,57.2,30.06,SSW,203,0.0,0.0,58,0.00,,CLR,0.00,VWS V14.00,2013-06-22 03:09:00,
2013-06-21 23:14:00,72.5,57.8,30.06,SSW,203,0.0,0.0,60,0.00,,CLR,0.00,VWS V14.00,2013-06-22 03:14:00,
2013-06-21 23:19:00,72.3,56.7,30.06,SSW,203,0.0,0.0,58,0.00,,CLR,0.00,VWS V14.00,2013-06-22 03:19:00,
2013-06-21 23:24:00,72.1,57.0,30.06,SSW,203,0.0,0.0,59,0.00,,CLR,0.00,VWS V14.00,2013-06-22 03:24:00,
2013-06-21 23:29:00,71.9,57.7,30.07,SSW,203,0.0,0.0,61,0.00,,CLR,0.00,VWS V14.00,2013-06-22 03:29:00,
2013-06-21 23:34:00,71.8,57.2,30.06,SSW,203,0.0,0.0,60,0.00,,CLR,0.00,VWS V14.00,2013-06-22 03:34:00,
2013-06-21 23:39:00,71.6,57.5,30.07,SSW,203,0.0,0.0,61,0.00,,CLR,0.00,VWS V14.00,2013-06-22 03:39:00,
2013-06-21 23:44:00,71.6,57.5,30.07,SSW,203,0.0,0.0,61,0.00,,CLR,0.00,VWS V14.00,2013-06-22 03:44:00,
2013-06-21 23:49:00,71.5,57.4,30.07,SSW,203,0.0,0.0,61,0.00,,CLR,0.00,VWS V14.00,2013-06-22 03:49:00,
2013-06-21 23:54:00,71.5,57.8,30.07,SSW,203,0.0,0.0,62,0.00,,CLR,0.00,VWS V14.00,2013-06-22 03:54:00,
2013-06-21 23:59:00,71.5,58.3,30.07,SSW,203,0.0,0.0,63,0.00,,CLR,0.00,VWS V14.00,2013-06-22 03:59:00,